Vorticity
8 7 7 7 7 7 7 6 7 7 7 5 3 2 3 5 6 6 8 8 7 6 5 5 7 5 1 -2 3 15 20 17 19 21 13 3 18 0 16 3 -1 28 -2 12
7 7 6 5 6 5 4 4 5 4 4 5 7 9 9 8 8 8 8 8 7 9 5 5 6 5 1 2 8 19 22 9 16 13 13 14 2 12 16 11 -12 10 16 13
6 6 5 4 4 3 5 7 6 11 11 13 10 11 10 10 10 8 8 7 8 8 5 3 6 0 3 7 19 35 18 10 21 12 5 4 13 13 6 -14 0 35 4 8
6 5 4 4 4 7 6 8 9 9 8 8 9 9 9 9 9 9 9 8 8 4 5 5 3 -0 8 16 21 25 25 26 33 7 9 8 7 9 8 25 14 -3 -3 17
5 4 4 4 6 7 7 8 9 7 6 5 6 5 4 6 7 9 8 10 8 7 5 5 3 3 10 26 19 29 17 32 26 9 11 8 12 9 14 7 7 5 3 23
6 6 6 6 8 6 5 6 3 2 1 6 4 5 4 7 8 8 14 8 7 9 6 8 7 15 25 17 19 16 34 22 10 6 5 19 14 17 10 11 17 5 10 19
5 6 7 8 7 6 5 4 4 6 7 6 9 8 7 5 8 7 10 5 3 11 2 8 13 32 20 16 23 36 20 18 2 15 9 16 14 6 10 9 6 9 13 19
7 7 8 6 6 5 6 7 8 5 10 6 8 10 5 7 11 8 11 6 7 6 7 5 18 18 21 26 23 24 19 9 1 5 7 18 8 7 11 9 8 15 19 7
7 9 4 3 8 4 8 7 7 8 3 8 6 6 5 4 9 9 7 9 9 9 5 5 31 14 23 26 16 11 21 9 -2 15 17 9 9 6 6 6 9 50 1 7
-1 6 3 1 9 5 3 7 10 8 9 11 9 8 4 11 10 10 7 9 12 12 5 21 18 19 31 17 16 11 21 -3 0 4 14 10 2 10 7 9 18 3 10 18
2 6 6 1 6 5 4 7 3 12 9 10 7 4 8 12 9 7 12 11 4 8 19 18 20 24 34 12 3 26 9 5 12 7 9 7 8 9 8 8 31 11 14 12
4 6 10 6 10 5 10 6 14 8 7 6 4 6 8 9 10 8 10 5 11 16 17 17 28 29 29 14 7 3 9 8 17 21 1 14 0 9 11 12 12 17 13 13
9 5 5 9 6 10 3 11 9 11 7 4 1 18 7 4 12 9 7 12 15 14 21 24 37 30 28 11 -1 10 10 -6 19 0 11 3 11 10 11 7 8 14 12 12
2 7 7 5 6 11 9 11 6 14 5 8 10 9 7 10 11 9 15 11 19 24 24 27 35 30 19 11 -5 15 30 30 7 18 6 1 1 5 16 12 16 11 14 11
7 8 11 5 12 13 14 4 10 4 7 12 9 8 7 11 11 13 14 20 24 22 24 28 34 24 13 12 5 35 -2 8 17 6 7 7 7 14 8 11 12 11 13 11
17 6 5 14 15 8 15 5 6 7 10 8 10 9 9 12 12 10 21 23 19 19 23 35 42 26 14 4 12 10 6 5 14 15 7 7 4 16 4 11 9 11 9 12
7 11 13 7 14 6 4 6 11 11 13 5 6 12 10 13 9 17 22 18 15 18 26 36 41 29 10 -5 19 9 10 17 16 8 4 2 12 13 7 10 12 8 10 13
10 7 15 14 16 -0 11 9 13 11 7 8 13 11 9 12 11 18 20 11 18 20 32 36 40 28 -1 22 15 9 5 13 11 6 5 6 3 17 13 11 11 9 11 10
6 12 12 -1 9 10 12 15 14 9 2 14 13 9 7 13 15 16 16 18 23 24 28 35 37 -4 20 5 -0 11 10 7 11 7 2 9 14 13 14 9 7 8 9 7
6 9 8 16 10 10 17 17 12 7 13 12 8 7 10 19 18 15 14 37 11 16 31 42 9 -4 22 26 20 10 3 -3 6 44 11 12 20 5 11 7 10 10 9 9
16 8 11 14 13 15 12 12 11 13 12 7 5 7 11 19 16 18 18 23 16 19 30 37 -13 19 28 10 8 5 2 4 1 21 12 24 19 13 7 8 11 11 11 13
10 12 16 14 13 14 6 14 12 11 7 6 6 9 13 21 10 15 28 11 31 -8 -3 3 -7 23 1 38 11 7 10 11 8 8 12 13 20 25 5 10 9 6 7 11
13 13 14 13 10 12 21 16 17 7 5 4 7 9 11 23 12 15 36 6 23 -4 -13 12 34 11 -2 27 15 18 5 6 4 -1 5 11 3 4 14 18 8 9 6 5
15 11 12 8 8 21 12 11 9 7 5 3 6 11 14 17 9 15 37 8 -5 -22 11 11 32 12 -3 18 27 10 11 7 6 8 8 6 6 5 5 8 18 10 8 7
8 7 6 6 19 14 7 7 7 5 4 3 7 10 13 20 9 16 40 7 13 -5 14 16 25 15 7 14 19 12 9 5 12 11 12 10 12 2 -1 0 10 22 14 8
7 14 2 14 13 7 6 6 7 6 4 3 5 9 10 22 16 12 35 1 28 7 12 16 32 17 -8 30 16 14 5 10 11 12 11 14 11 4 11 8 6 5 19 7
17 5 8 18 10 8 8 7 7 6 3 2 4 7 11 18 23 11 16 13 25 -9 -15 13 26 23 10 2 17 9 8 5 7 9 11 7 7 4 6 8 3 -1 12 11
Height
5757 5758 5760 5760 5761 5761 5762 5761 5761 5761 5760 5761 5759 5758 5756 5755 5752 5750 5748 5746 5743 5740 5737 5734 5730 5726 5722 5717 5712 5706 5702 5701 5699 5697 5696 5695 5695 5695 5694 5694 5693 5692 5692 5693
5752 5754 5755 5756 5757 5757 5757 5757 5757 5757 5756 5755 5754 5752 5751 5749 5747 5745 5743 5740 5737 5734 5731 5728 5723 5718 5714 5709 5704 5699 5695 5693 5693 5693 5694 5693 5693 5693 5692 5691 5691 5691 5691 5692
5747 5749 5750 5752 5752 5753 5753 5753 5753 5752 5751 5749 5748 5746 5745 5743 5741 5739 5737 5734 5731 5727 5724 5720 5716 5711 5705 5699 5695 5691 5688 5687 5688 5689 5689 5690 5690 5691 5690 5689 5689 5689 5690 5690
5741 5744 5745 5746 5747 5748 5748 5747 5747 5746 5746 5745 5743 5742 5740 5737 5736 5733 5730 5728 5724 5721 5718 5713 5709 5703 5697 5689 5685 5682 5681 5681 5681 5683 5684 5686 5687 5687 5687 5687 5688 5687 5689 5689
5735 5738 5739 5741 5742 5742 5742 5742 5743 5741 5740 5739 5738 5736 5733 5731 5729 5727 5724 5720 5716 5713 5710 5706 5701 5697 5688 5685 5678 5675 5675 5675 5678 5679 5682 5684 5685 5686 5687 5686 5687 5688 5688 5689
5729 5732 5733 5735 5736 5736 5735 5736 5736 5736 5735 5734 5732 5731 5728 5725 5723 5721 5718 5714 5710 5706 5702 5697 5693 5688 5681 5678 5674 5670 5670 5672 5676 5678 5680 5682 5685 5684 5685 5685 5687 5688 5689 5690
5723 5725 5727 5729 5730 5730 5731 5731 5731 5731 5730 5728 5727 5724 5722 5719 5716 5713 5710 5707 5703 5699 5695 5690 5685 5680 5674 5671 5668 5666 5668 5670 5674 5676 5679 5681 5683 5683 5684 5686 5687 5687 5689 5690
5717 5719 5721 5723 5723 5724 5725 5725 5725 5725 5723 5722 5720 5718 5715 5712 5708 5705 5701 5698 5695 5691 5688 5685 5677 5672 5668 5665 5663 5664 5666 5670 5673 5676 5677 5681 5682 5684 5684 5686 5687 5688 5689 5691
5710 5712 5714 5716 5717 5717 5718 5718 5718 5718 5716 5715 5713 5711 5708 5704 5700 5697 5693 5689 5686 5683 5680 5676 5670 5666 5663 5661 5661 5663 5665 5669 5672 5674 5677 5680 5681 5683 5684 5686 5688 5688 5691 5694
5703 5705 5708 5709 5710 5711 5712 5711 5711 5711 5709 5707 5706 5703 5699 5695 5692 5689 5684 5680 5677 5674 5671 5667 5663 5660 5658 5657 5658 5661 5664 5667 5670 5672 5675 5679 5681 5683 5684 5688 5693 5691 5693 5695
5696 5699 5700 5702 5703 5705 5705 5704 5703 5703 5702 5700 5698 5695 5691 5687 5684 5680 5676 5673 5669 5665 5661 5657 5654 5652 5652 5654 5656 5658 5662 5665 5667 5670 5675 5679 5680 5683 5685 5688 5690 5692 5694 5696
5689 5691 5693 5695 5696 5697 5697 5696 5695 5695 5695 5693 5690 5686 5684 5680 5676 5672 5668 5665 5659 5654 5650 5647 5644 5643 5646 5649 5653 5657 5661 5664 5667 5671 5674 5677 5680 5682 5684 5687 5690 5693 5695 5697
5680 5683 5685 5687 5689 5690 5689 5688 5686 5686 5686 5685 5682 5679 5676 5672 5668 5665 5661 5655 5649 5644 5639 5636 5635 5635 5639 5644 5649 5653 5658 5662 5666 5669 5673 5676 5680 5681 5684 5688 5691 5693 5696 5699
5672 5675 5677 5679 5682 5683 5681 5680 5678 5678 5678 5677 5674 5672 5668 5664 5661 5657 5651 5645 5638 5633 5628 5626 5626 5628 5632 5639 5646 5650 5655 5659 5663 5668 5672 5676 5679 5682 5685 5689 5691 5694 5697 5700
5664 5666 5668 5671 5674 5675 5674 5672 5671 5671 5672 5670 5667 5665 5661 5657 5653 5648 5641 5634 5628 5623 5620 5618 5619 5621 5628 5635 5642 5648 5652 5657 5663 5668 5672 5675 5678 5681 5686 5689 5692 5695 5698 5701
5655 5657 5660 5662 5665 5667 5666 5665 5666 5665 5663 5662 5661 5659 5655 5650 5645 5640 5632 5625 5621 5617 5613 5611 5612 5615 5624 5634 5641 5647 5652 5658 5663 5668 5672 5675 5678 5682 5686 5689 5693 5696 5699 5703
5646 5649 5651 5654 5656 5658 5659 5659 5659 5657 5657 5656 5655 5654 5650 5644 5639 5632 5626 5620 5616 5612 5609 5607 5608 5614 5623 5634 5641 5647 5652 5657 5662 5667 5670 5674 5678 5682 5686 5690 5693 5696 5700 5704
5638 5641 5643 5645 5649 5650 5651 5652 5651 5650 5652 5651 5650 5649 5645 5639 5632 5627 5621 5617 5612 5609 5607 5607 5610 5618 5627 5635 5641 5646 5652 5657 5661 5665 5669 5673 5677 5681 5686 5690 5694 5697 5700 5704
5629 5632 5635 5638 5641 5643 5644 5645 5645 5645 5648 5646 5645 5643 5639 5632 5627 5623 5619 5615 5611 5610 5608 5610 5617 5625 5631 5636 5641 5645 5650 5656 5660 5663 5667 5672 5677 5682 5686 5690 5694 5698 5701 5704
5621 5624 5627 5630 5634 5636 5637 5638 5638 5640 5641 5641 5639 5636 5632 5628 5624 5620 5619 5615 5613 5612 5612 5615 5623 5629 5630 5633 5639 5645 5651 5656 5659 5663 5667 5671 5676 5682 5686 5690 5694 5698 5702 5705
5613 5616 5620 5623 5626 5628 5630 5631 5634 5635 5636 5635 5633 5630 5626 5623 5621 5619 5617 5615 5615 5613 5615 5621 5623 5625 5628 5635 5640 5645 5650 5655 5658 5662 5665 5669 5675 5681 5686 5690 5694 5697 5700 5704
5606 5611 5613 5617 5619 5622 5624 5626 5629 5629 5629 5629 5627 5625 5622 5620 5618 5618 5616 5616 5615 5614 5618 5621 5622 5626 5631 5635 5640 5645 5649 5654 5658 5661 5665 5670 5674 5679 5684 5688 5693 5697 5700 5702
5600 5605 5608 5612 5614 5617 5619 5622 5623 5623 5623 5622 5622 5620 5618 5616 5617 5616 5615 5615 5615 5616 5619 5620 5622 5627 5632 5634 5638 5644 5648 5651 5657 5662 5665 5669 5673 5678 5681 5686 5690 5695 5699 5702
5595 5599 5603 5606 5609 5611 5614 5616 5617 5618 5617 5617 5617 5615 5614 5613 5614 5613 5613 5614 5613 5616 5617 5619 5622 5628 5631 5634 5638 5643 5647 5651 5655 5660 5664 5668 5673 5677 5680 5684 5688 5692 5695 5699
5590 5594 5598 5601 5603 5606 5608 5610 5611 5612 5612 5611 5612 5611 5611 5610 5610 5611 5612 5612 5612 5615 5616 5619 5622 5627 5630 5634 5638 5642 5646 5650 5653 5658 5662 5666 5671 5675 5679 5682 5685 5688 5692 5695
5586 5590 5594 5595 5598 5600 5602 5604 5605 5606 5605 5606 5607 5606 5607 5607 5608 5608 5609 5610 5609 5613 5615 5618 5619 5623 5628 5631 5636 5640 5644 5647 5651 5655 5659 5663 5667 5672 5675 5679 5682 5685 5688 5692
5579 5586 5588 5591 5592 5594 5596 5598 5599 5599 5599 5601 5602 5602 5602 5604 5605 5606 5605 5603 5605 5607 5610 5614 5616 5619 5625 5629 5633 5637 5641 5645 5648 5653 5657 5660 5664 5667 5671 5674 5678 5682 5684 5687